Location: Alafon
(8.4500°N, 4.2333°E)
Time: 00:24:35
(UTC+00:00)

deb Explorer IX - Pass Details

Date: 27 July 2021
Orbit: 545 x 1091 km, 38.8° (Epoch: 19 September)

Event Time Altitude Azimuth Distance (km) Brightness Sun altitude
Rises 19:25:32 0° 336° (NNW) 3,795 ? -19.4°
Reaches altitude 10° 19:29:52 10° 0° (N) 2,901 ? -20.4°
Maximum altitude 19:33:19 14° 29° (NNE) 2,645 ? -21.2°
Enters shadow 19:36:16 11° 55° (NE) 2,857 ? -21.8°
Drops below altitude 10° 19:36:46 10° 58° (ENE) 2,928 - -21.9°
Sets 19:41:09 0° 82° (E) 3,857 - -22.9°
